Wind_Speed
9 14 13 14 14 10 4 6 2 15 5 4 5 4 3 7 3 3 3 8 10 7 9 5 3 4 5 4 1 2 1 2 4 2 2 2 2 3 7 2 1 3 3 6
9 12 13 12 12 13 6 3 4 20 12 5 6 7 6 8 6 7 3 4 3 2 3 4 5 6 6 6 5 2 3 1 4 2 2 3 2 2 3 5 2 3 3 4
10 9 11 9 9 10 6 4 2 7 19 20 8 8 6 4 5 4 8 2 5 5 7 6 6 5 2 3 4 3 1 2 3 2 5 2 3 2 3 3 2 3 8 9
10 8 9 8 6 7 4 6 2 1 3 6 7 6 4 6 3 3 5 4 7 3 4 6 4 5 4 5 1 3 3 2 5 5 3 2 5 8 8 10 12 6 15 12
9 8 7 6 4 6 5 3 2 4 4 1 3 2 4 6 4 7 4 6 5 8 8 6 4 5 2 3 0 2 3 1 3 2 7 4 6 11 11 14 17 15 16 20
8 6 6 5 2 4 4 5 5 3 1 1 2 3 4 6 2 6 9 6 5 10 8 12 11 9 7 4 3 4 2 1 3 3 4 4 9 12 14 10 11 8 12 16
6 5 4 3 2 5 7 4 4 2 2 1 3 4 5 8 7 4 6 11 5 3 4 5 3 5 4 5 3 4 2 3 1 3 4 3 7 5 6 5 7 10 11 9
6 5 2 2 1 3 5 6 4 4 3 7 5 5 6 9 7 5 9 6 4 1 2 1 2 2 2 2 6 5 3 2 3 3 4 8 10 5 2 1 5 6 7 9
7 6 5 2 1 3 4 4 7 5 3 2 4 5 4 3 3 3 2 3 3 2 1 1 3 3 3 4 4 2 1 3 2 3 3 5 2 5 10 4 5 4 8 6
7 7 7 6 4 4 5 3 3 4 4 5 8 2 2 3 4 3 2 3 3 3 1 2 1 1 1 2 3 4 3 3 6 6 4 6 9 12 6 1 3 4 4 6
6 7 8 8 7 6 6 4 5 3 2 4 7 8 5 6 4 3 7 4 1 1 2 2 2 2 2 0 2 3 6 6 4 3 3 6 3 6 2 5 17 9 6 8
7 7 8 9 9 10 8 6 7 5 3 4 8 12 11 9 8 6 13 1 5 4 3 1 2 1 2 0 2 1 4 5 2 6 5 4 1 14 17 24 19 13 14 6
6 4 7 9 10 8 11 7 4 6 4 5 6 4 9 13 13 8 3 2 3 3 3 4 2 2 3 3 5 7 5 15 6 7 2 6 22 30 18 21 16 15 14 14
6 6 6 8 9 9 9 7 5 7 1 1 2 2 4 5 11 20 10 5 6 7 5 3 2 2 8 2 4 7 5 11 4 7 14 21 20 15 14 15 15 14 13 13
6 6 6 8 8 9 10 9 8 11 3 1 3 4 6 7 5 9 15 15 5 4 3 2 3 2 1 2 3 9 11 8 4 7 15 18 20 23 26 22 18 13 12 13
7 6 7 8 7 9 9 4 9 12 10 1 1 2 3 8 9 10 6 11 12 7 6 4 4 5 5 2 3 11 15 14 17 15 19 20 23 23 17 16 16 14 13 15
7 8 10 9 11 11 5 3 3 9 13 3 2 2 4 4 6 7 9 11 7 7 7 6 5 6 9 2 7 10 18 24 24 21 20 21 20 15 19 20 19 19 17 16
6 10 12 11 10 11 6 5 6 11 8 3 1 1 3 7 4 4 6 7 6 7 5 4 4 8 7 6 12 11 14 14 14 14 18 20 22 20 21 19 17 16 14 11
11 12 12 12 10 7 7 5 5 10 3 2 2 2 2 7 3 5 4 5 3 7 3 3 5 3 6 9 9 17 16 9 16 18 20 25 23 23 20 16 14 12 9 6
15 16 4 5 8 10 9 6 5 6 4 4 3 3 2 3 4 2 5 1 1 1 2 3 3 4 22 27 28 24 18 22 27 21 20 19 20 17 13 10 8 7 7 8
17 6 5 10 13 6 3 3 2 3 2 5 4 7 3 3 2 2 1 2 3 2 2 3 3 4 6 15 16 15 13 12 13 17 18 19 17 12 10 10 10 9 9 9
13 8 13 12 3 2 3 3 3 3 3 5 4 4 4 4 3 3 1 1 1 3 3 2 4 4 12 9 7 9 11 15 16 18 18 14 11 9 10 11 9 9 9 10
13 5 5 4 2 3 5 7 3 3 7 7 5 3 4 3 2 4 1 1 2 1 1 4 5 3 5 7 8 9 10 12 14 14 11 9 9 9 9 9 9 8 8 10
4 7 5 5 4 5 4 2 3 4 6 16 14 6 3 3 2 2 2 1 1 3 3 7 3 13 11 8 7 9 10 12 12 11 10 11 10 10 10 9 8 9 11 13
6 6 5 6 4 3 6 13 10 8 18 17 9 5 4 2 2 2 2 4 4 4 5 3 2 4 7 8 9 10 12 12 13 13 13 13 13 13 12 11 11 12 14 16
6 5 1 3 4 3 4 10 9 14 21 10 6 3 3 4 3 5 7 3 6 4 3 7 7 8 9 10 10 11 13 14 14 14 14 14 16 16 14 13 14 14 17 19
4 4 15 7 3 8 10 11 12 18 16 3 4 6 9 2 3 4 4 5 3 4 9 9 11 11 12 12 13 16 16 15 14 14 16 17 17 17 16 15 15 17 19 21
Wind_Direction
340 339 347 358 354 351 21 40 4 0 356 42 54 46 65 108 94 80 26 13 70 118 153 118 92 95 49 37 249 84 116 34 136 104 61 16 353 295 185 196 226 224 110 276
343 336 348 1 5 6 40 52 21 36 83 83 82 104 80 54 42 19 48 68 61 60 69 121 78 91 52 34 41 42 8 339 124 114 349 3 298 282 325 339 69 248 182 260
339 336 338 0 10 13 38 2 57 38 52 52 84 93 77 99 41 57 53 127 131 106 69 75 128 117 77 45 88 59 274 36 52 91 103 66 175 219 222 240 235 227 234 275
330 342 337 357 16 19 45 27 90 42 32 21 57 62 90 98 100 124 10 39 32 80 104 91 99 101 133 73 80 39 33 55 52 10 346 276 266 265 239 217 235 231 260 267
301 334 347 359 24 27 53 20 119 84 70 339 56 96 33 87 106 9 27 92 29 67 63 38 113 112 91 112 254 104 14 121 87 268 251 262 269 263 256 249 258 258 265 273
289 308 329 9 25 38 54 61 80 58 304 46 315 23 46 74 56 47 36 16 91 71 36 34 34 31 54 88 123 149 127 37 47 254 72 353 278 256 233 235 247 236 248 255
260 303 304 351 50 77 113 110 71 326 104 150 69 107 83 72 28 92 50 26 47 64 17 345 31 49 24 353 328 346 138 132 97 275 325 215 245 219 216 267 255 240 262 277
206 256 294 308 121 125 118 123 111 21 114 112 102 126 106 105 79 51 59 47 98 112 13 302 151 121 124 102 47 340 221 199 232 212 220 303 291 310 222 222 294 289 297 295
205 205 241 259 215 174 169 125 114 108 129 73 77 143 161 134 109 108 77 55 125 96 278 217 198 173 109 167 141 119 269 221 219 68 206 236 255 104 63 22 282 35 45 18
225 201 215 236 207 200 197 181 153 106 95 153 133 140 134 78 83 81 102 119 103 62 108 110 154 180 359 192 201 162 150 195 216 226 243 284 265 124 99 107 251 312 322 314
232 229 213 218 230 194 196 193 187 171 128 191 203 171 151 148 150 158 158 120 190 93 164 140 162 210 168 45 328 174 182 182 199 200 217 265 356 77 154 284 317 308 283 258
240 227 220 216 211 217 208 202 189 193 192 207 226 225 212 194 181 163 168 161 138 153 90 78 99 53 19 127 254 182 267 211 221 180 216 245 336 324 342 343 346 1 359 335
252 226 217 209 210 208 201 210 237 231 232 272 256 251 238 220 213 183 127 178 146 144 119 123 93 204 155 190 223 242 270 265 250 332 281 320 318 315 360 6 1 341 326 310
240 230 187 182 189 194 197 208 222 207 137 334 58 212 157 191 219 214 200 143 170 150 138 89 136 212 191 231 273 269 250 323 285 290 298 296 290 339 342 347 339 326 305 294
234 218 188 174 181 186 194 203 209 202 198 37 296 294 232 178 175 202 207 208 152 134 121 128 208 173 188 242 302 263 223 243 239 258 300 304 299 309 313 316 334 333 311 293
236 204 175 151 156 171 169 190 229 214 221 164 274 229 246 229 215 196 173 187 195 172 168 186 207 180 184 236 254 235 232 243 262 285 316 316 309 310 305 311 312 306 282 265
227 186 164 149 158 166 163 156 155 194 191 214 293 201 173 173 144 155 178 179 172 176 164 204 187 186 191 239 253 250 285 296 301 308 311 304 306 301 299 305 304 301 289 269
197 161 154 152 152 168 172 113 73 150 172 194 235 245 148 154 161 120 160 164 170 193 197 193 186 163 201 251 249 285 284 294 294 304 301 300 303 296 298 296 300 296 274 245
150 146 150 147 163 162 181 200 165 176 186 213 186 188 169 160 150 133 137 170 171 172 208 198 167 167 223 241 262 270 271 283 294 291 293 295 288 282 281 287 279 247 234 236
155 156 146 162 160 148 146 154 170 184 213 224 200 188 161 151 171 116 126 116 142 196 227 172 225 251 254 258 264 274 274 277 289 299 296 294 287 281 270 255 244 234 233 240
160 165 158 143 142 134 125 118 148 163 256 215 196 197 140 165 153 133 118 160 154 202 154 230 238 252 240 268 264 263 276 287 304 306 303 300 303 299 272 255 229 236 237 251
172 152 121 136 151 110 139 172 136 205 227 165 154 133 121 124 134 110 90 133 126 233 141 228 254 252 252 259 281 292 296 297 295 291 289 292 294 280 249 232 224 230 253 270
145 156 145 162 152 176 193 187 194 204 175 166 147 112 122 107 98 82 83 164 237 78 217 242 234 275 223 234 261 275 285 287 282 280 271 268 258 242 224 211 222 246 271 292
156 151 175 201 186 225 186 169 139 152 149 144 129 110 106 97 100 118 191 177 79 242 229 234 246 239 230 234 262 277 285 279 269 263 254 245 238 224 218 232 255 276 291 298
171 164 210 199 211 99 129 131 125 126 147 142 119 101 134 139 162 197 212 194 230 223 232 232 174 198 214 252 271 276 277 274 260 253 246 239 228 228 240 254 267 279 291 301
174 201 208 125 131 151 164 166 147 153 157 134 105 117 148 212 204 183 208 225 214 241 216 231 257 260 253 266 281 287 281 270 262 252 252 244 237 242 254 262 275 289 298 305
199 190 208 191 157 151 186 191 184 177 161 151 138 182 211 122 208 207 206 215 222 250 274 287 305 280 271 285 291 292 282 273 261 255 252 250 247 250 259 271 284 294 302 305
Height
1444 1440 1438 1435 1431 1428 1427 1425 1425 1422 1418 1419 1422 1433 1431 1437 1441 1441 1439 1436 1438 1444 1447 1451 1454 1461 1465 1467 1466 1468 1470 1472 1488 1485 1482 1481 1479 1480 1481 1495 1492 1492 1501 1496
1444 1440 1437 1435 1432 1429 1427 1427 1427 1425 1421 1429 1434 1436 1439 1440 1441 1443 1442 1445 1445 1444 1451 1458 1458 1465 1469 1468 1469 1473 1471 1474 1490 1493 1488 1482 1482 1478 1479 1483 1485 1495 1503 1489
1444 1441 1438 1436 1433 1431 1430 1429 1430 1430 1428 1430 1432 1435 1439 1445 1446 1446 1445 1447 1446 1446 1451 1451 1460 1467 1471 1470 1471 1471 1472 1475 1480 1489 1485 1480 1485 1483 1481 1486 1496 1488 1484 1476
1443 1441 1438 1436 1435 1432 1432 1432 1437 1437 1437 1439 1438 1437 1439 1443 1446 1448 1447 1448 1447 1446 1455 1457 1463 1466 1470 1471 1472 1472 1473 1478 1478 1479 1478 1479 1482 1482 1481 1484 1478 1488 1471 1473
1442 1442 1439 1437 1436 1434 1434 1434 1435 1437 1440 1441 1439 1440 1446 1447 1449 1448 1449 1451 1450 1448 1458 1456 1462 1463 1463 1469 1474 1474 1477 1483 1480 1483 1478 1479 1482 1476 1476 1475 1472 1472 1471 1468
1441 1441 1440 1439 1437 1436 1436 1436 1436 1437 1443 1442 1441 1447 1449 1450 1449 1455 1455 1453 1453 1459 1465 1465 1466 1467 1468 1469 1473 1476 1480 1483 1487 1490 1479 1482 1486 1465 1467 1466 1464 1466 1470 1459
1440 1440 1440 1440 1439 1438 1438 1438 1439 1438 1444 1442 1444 1447 1448 1450 1452 1455 1458 1457 1457 1469 1467 1467 1468 1469 1471 1472 1473 1475 1481 1485 1488 1493 1486 1500 1462 1452 1454 1457 1453 1456 1456 1455
1439 1439 1439 1439 1440 1439 1439 1439 1440 1440 1443 1444 1448 1449 1452 1455 1457 1460 1461 1464 1466 1468 1469 1470 1471 1475 1475 1476 1479 1479 1480 1485 1491 1496 1490 1473 1459 1448 1452 1454 1458 1452 1453 1451
1437 1437 1438 1439 1439 1440 1440 1440 1441 1442 1445 1448 1447 1451 1453 1455 1459 1465 1467 1467 1467 1468 1469 1470 1473 1475 1470 1480 1483 1482 1482 1482 1489 1505 1497 1490 1452 1452 1453 1455 1469 1454 1452 1451
1434 1436 1437 1438 1439 1439 1441 1441 1442 1442 1444 1447 1450 1452 1454 1456 1458 1462 1466 1468 1470 1471 1472 1476 1482 1477 1477 1477 1473 1484 1487 1488 1489 1486 1488 1473 1453 1454 1456 1469 1466 1452 1453 1452
1432 1434 1436 1437 1438 1440 1441 1442 1443 1445 1446 1447 1448 1450 1452 1455 1458 1461 1466 1470 1471 1472 1472 1472 1477 1479 1477 1477 1469 1473 1479 1485 1485 1480 1481 1484 1450 1455 1463 1456 1451 1450 1449 1449
1430 1432 1433 1435 1437 1438 1440 1442 1444 1445 1446 1448 1448 1449 1450 1453 1455 1458 1461 1462 1462 1465 1469 1473 1476 1479 1479 1476 1480 1469 1478 1464 1466 1468 1468 1452 1451 1454 1454 1452 1450 1449 1449 1450
1427 1429 1431 1433 1435 1437 1439 1441 1443 1444 1446 1447 1447 1448 1450 1452 1455 1458 1460 1462 1463 1465 1466 1469 1475 1479 1480 1480 1478 1470 1464 1460 1461 1461 1450 1450 1451 1452 1449 1450 1451 1451 1450 1450
1425 1427 1429 1432 1434 1436 1438 1441 1443 1445 1446 1446 1447 1447 1448 1449 1450 1454 1458 1460 1462 1464 1467 1470 1474 1477 1475 1475 1472 1465 1463 1459 1455 1455 1452 1450 1451 1450 1448 1448 1448 1447 1447 1447
1423 1425 1427 1430 1433 1435 1438 1441 1443 1445 1449 1448 1447 1446 1447 1447 1449 1451 1455 1458 1461 1465 1469 1472 1474 1474 1476 1475 1473 1458 1457 1454 1457 1451 1449 1450 1448 1447 1445 1443 1443 1442 1442 1444
1422 1424 1426 1429 1432 1434 1437 1440 1442 1443 1445 1448 1449 1447 1446 1446 1447 1450 1453 1457 1461 1464 1467 1470 1469 1471 1474 1473 1465 1445 1446 1446 1447 1445 1444 1443 1442 1443 1439 1440 1439 1438 1438 1437
1420 1423 1425 1428 1430 1433 1436 1438 1440 1441 1445 1447 1448 1444 1445 1446 1448 1450 1452 1455 1457 1461 1464 1466 1466 1468 1471 1468 1455 1433 1439 1441 1442 1441 1439 1438 1438 1437 1436 1435 1435 1434 1433 1433
1418 1422 1425 1428 1430 1433 1435 1437 1438 1440 1443 1445 1446 1445 1446 1447 1448 1450 1451 1453 1455 1458 1459 1461 1461 1464 1464 1456 1433 1436 1437 1438 1438 1438 1437 1436 1435 1434 1432 1431 1430 1429 1430 1430
1419 1423 1426 1428 1430 1432 1434 1436 1439 1441 1446 1444 1444 1443 1444 1446 1447 1448 1451 1452 1455 1456 1455 1456 1458 1455 1451 1432 1434 1433 1435 1436 1435 1435 1434 1432 1431 1429 1428 1427 1427 1426 1427 1427
1421 1424 1425 1427 1428 1430 1434 1436 1438 1440 1441 1441 1440 1440 1442 1444 1445 1447 1450 1452 1452 1454 1454 1454 1453 1442 1433 1427 1428 1430 1431 1430 1430 1428 1425 1424 1423 1423 1423 1423 1424 1425 1425 1427
1419 1422 1424 1426 1428 1431 1432 1434 1436 1437 1438 1435 1436 1437 1439 1443 1444 1445 1448 1449 1451 1452 1451 1452 1444 1436 1423 1421 1423 1424 1424 1425 1424 1423 1421 1419 1419 1419 1420 1420 1422 1423 1425 1426
1417 1419 1424 1426 1429 1430 1433 1432 1435 1435 1432 1432 1433 1435 1437 1440 1442 1443 1448 1447 1448 1448 1451 1451 1437 1423 1417 1418 1419 1420 1420 1420 1420 1419 1418 1417 1417 1417 1418 1419 1420 1422 1424 1424
1416 1419 1423 1424 1428 1429 1430 1430 1427 1426 1425 1428 1430 1434 1437 1440 1442 1444 1446 1446 1447 1448 1450 1440 1426 1415 1415 1417 1418 1419 1419 1419 1418 1417 1417 1416 1416 1416 1416 1416 1418 1419 1419 1419
1412 1415 1421 1420 1422 1418 1413 1414 1417 1420 1422 1425 1429 1434 1438 1441 1443 1445 1447 1447 1448 1446 1445 1433 1414 1412 1414 1415 1416 1416 1416 1416 1416 1415 1414 1414 1414 1414 1415 1415 1416 1416 1416 1416
1410 1411 1410 1410 1409 1410 1411 1412 1416 1419 1422 1426 1431 1435 1438 1441 1443 1444 1444 1444 1442 1436 1428 1417 1412 1413 1414 1414 1413 1413 1412 1411 1411 1412 1411 1411 1411 1412 1412 1413 1412 1412 1412 1411
1405 1405 1405 1405 1408 1411 1412 1414 1416 1418 1422 1425 1429 1434 1437 1436 1436 1437 1435 1433 1430 1419 1413 1410 1410 1411 1411 1411 1410 1409 1408 1407 1407 1407 1408 1408 1408 1409 1410 1409 1408 1407 1407 1405
1398 1400 1401 1403 1403 1405 1410 1414 1415 1419 1422 1425 1428 1431 1430 1429 1430 1429 1426 1422 1411 1407 1407 1407 1407 1408 1408 1407 1406 1405 1404 1403 1403 1403 1404 1404 1405 1405 1406 1406 1405 1403 1402 1400